Home > Weather > Ocala > Past weeks

Flag for U.S.A. Weather for the Past 2 Weeks in Ocala, Florida, U.S.A.

Now
46 °F

Clear.


Feels Like: 42 °F
Forecast: 44 / 58 °F
Wind: 8 mph from North

Location: Ocala Municipal

Current Time: Feb 6, 2016 at 4:35:16 AM

Latest Report: Feb 6, 2016 at 3:55 AM


Visibility: 10 mi

Pressure: 30.21 "Hg

Humidity: 62%

Dew point: 34 °F

Location of OcalaLocation

Historic Weather in Ocala — Graph

°F

Ocala Temperature Yesterday

Maximum temperature yesterday: 61 °F (at 3:50 PM)
Minimum temperature yesterday: 39 °F (at 6:35 AM)
Average temperature yesterday: 48 °F

High & Low Weather Summary for the Past Weeks

 TemperatureHumidityPressure
High86 °F (Feb 3, 1:50 PM)94% (Jan 22, 11:50 AM)30.32 "Hg (Jan 22, 11:50 AM)
Low27 °F (Jan 24, 7:50 AM)27% (Feb 5, 1:50 PM)29.70 "Hg (Jan 22, 3:50 PM)
Average55 °F76%30.07 "Hg
* Reported Jan 22 3:15 AM — Feb 6 3:35 AM, Ocala, Weather by CustomWeather, © 2016

Note: Actual official high and low records may vary slightly from our data, if they occured in-between our weather recording intervals... More about our weather records

Advertising

Ocala Weather History for the Previous 24 Hours

 ConditionsComfort  
Time TempWeatherWind HumidityBarometerVisibility
3:35 AM
Sat, Feb 6
46 °FClear.8 mph62%30.21 "Hg10 mi
3:15 AM46 °FClear.9 mph62%30.22 "Hg10 mi
2:55 AM46 °FClear.7 mph62%30.22 "Hg10 mi
2:35 AM46 °FClear.7 mph62%30.23 "Hg10 mi
2:15 AM46 °FClear.7 mph62%30.23 "Hg10 mi
1:55 AM46 °FClear.6 mph62%30.24 "Hg10 mi
1:35 AM45 °FClear.7 mph61%30.25 "Hg10 mi
1:15 AM45 °FClear.6 mph61%30.26 "Hg10 mi
12:55 AM45 °FClear.9 mph61%30.26 "Hg10 mi
12:35 AM46 °FPassing clouds.8 mph57%30.27 "Hg10 mi
12:15 AM45 °FPassing clouds.7 mph66%30.27 "Hg10 mi
11:55 PM
Fri, Feb 5
45 °FPassing clouds.5 mph66%30.28 "Hg10 mi
11:15 PM46 °FClear.7 mph62%30.29 "Hg10 mi
10:55 PM46 °FPassing clouds.6 mph62%30.30 "Hg10 mi
10:35 PM46 °FPassing clouds.6 mph62%30.30 "Hg10 mi
9:55 PM46 °FClear.5 mph62%30.30 "Hg10 mi
8:55 PM48 °FClear.7 mph58%30.30 "Hg10 mi
8:15 PM48 °FClear.8 mph58%30.30 "Hg10 mi
6:50 PM52 °FClear.6 mph44%30.29 "Hg10 mi
5:50 PM55 °FSunny.8 mph36%30.27 "Hg10 mi
4:50 PM57 °FSunny.10 mph31%30.27 "Hg10 mi
3:50 PM61 °FSunny.8 mph27%30.25 "Hg10 mi
2:50 PM59 °FSunny.7 mph27%30.25 "Hg10 mi
1:50 PM57 °FSunny.10 mph27%30.25 "Hg10 mi
12:50 PM55 °FSunny.9 mph31%30.28 "Hg10 mi
11:50 AM54 °FSunny.12 mph33%30.30 "Hg10 mi
10:50 AM52 °FSunny.14 mph32%30.32 "Hg10 mi
9:50 AM46 °FSunny.17 mph37%30.32 "Hg10 mi
8:50 AM45 °FSunny.15 mph46%30.31 "Hg10 mi
7:50 AM39 °FSunny.15 mph61%30.29 "Hg10 mi
6:50 AM39 °FClear.10 mph65%30.27 "Hg10 mi
6:35 AM39 °FClear.13 mph65%30.26 "Hg10 mi
6:15 AM41 °FClear.12 mph61%30.25 "Hg10 mi
5:55 AM43 °FClear.14 mph57%30.25 "Hg10 mi
5:35 AM43 °FClear.15 mph57%30.24 "Hg10 mi
5:15 AM43 °FClear.10 mph61%30.24 "Hg10 mi
4:55 AM43 °FClear.10 mph61%30.23 "Hg10 mi
4:35 AM45 °FClear.8 mph53%30.23 "Hg10 mi
4:15 AM45 °FClear.15 mph57%30.22 "Hg10 mi
Weather by CustomWeather, © 2016

See weather overviewHow to use our weather pages